This is the latest recevied weather packets stored in our database for station/object OE3PDB-4. If no packets are shown the sender has not sent any weather packets the latest 10 day(s).
| Time | Temp. | Humidity | Pressure | Rain* | Wind** | Luminosity | Snow |
|---|---|---|---|---|---|---|---|
| 1777699207 | 11.67° C | 65% | 1024.9 hPa | 0 mm | - | - | - |
| 1777698607 | 10.56° C | 70% | 1024.8 hPa | 0 mm | - | - | - |
| 1777698008 | 8.89° C | 72% | 1024.7 hPa | 0 mm | - | - | - |
| 1777697407 | 7.78° C | 71% | 1024.7 hPa | 0 mm | - | - | - |
| 1777696808 | 7.22° C | 71% | 1024.7 hPa | 0 mm | - | - | - |
| 1777696208 | 7.22° C | 71% | 1024.7 hPa | 0 mm | - | - | - |
| 1777695608 | 6.67° C | 71% | 1024.6 hPa | 0 mm | - | - | - |
| 1777695008 | 6.67° C | 71% | 1024.7 hPa | 0 mm | - | - | - |
| 1777694408 | 7.22° C | 71% | 1024.7 hPa | 0 mm | - | - | - |
| 1777693808 | 7.22° C | 71% | 1024.8 hPa | 0 mm | - | - | - |
| 1777693208 | 6.67° C | 71% | 1024.6 hPa | 0 mm | - | - | - |
| 1777692608 | 7.22° C | 71% | 1024.6 hPa | 0 mm | - | - | - |
| 1777692008 | 7.22° C | 71% | 1024.6 hPa | 0 mm | - | - | - |
| 1777691408 | 7.22° C | 70% | 1024.6 hPa | 0 mm | - | - | - |
| 1777690808 | 7.22° C | 70% | 1024.5 hPa | 0 mm | - | - | - |
| 1777690208 | 7.22° C | 70% | 1024.5 hPa | 0 mm | - | - | - |
| 1777689608 | 7.22° C | 70% | 1024.6 hPa | 0 mm | - | - | - |
| 1777689008 | 7.22° C | 70% | 1024.7 hPa | 0 mm | - | - | - |
| 1777688408 | 7.22° C | 70% | 1024.7 hPa | 0 mm | - | - | - |
| 1777687808 | 7.22° C | 70% | 1024.6 hPa | 0 mm | - | - | - |
| 1777687208 | 7.78° C | 69% | 1024.6 hPa | 0 mm | - | - | - |
| 1777686608 | 7.78° C | 69% | 1024.6 hPa | 0 mm | - | - | - |
| 1777686008 | 7.78° C | 69% | 1024.6 hPa | 0 mm | - | - | - |
| 1777685408 | 7.78° C | 69% | 1024.6 hPa | 0 mm | - | - | - |
| 1777684808 | 7.78° C | 68% | 1024.6 hPa | 0 mm | - | - | - |
* Rain latest hour (hover to see other rain measurements)
** Current wind speed in m/s (hover to see current wind gust speed)